Time,TemperatureF,DewpointF,PressureIn,WindDirection,WindDirectionDegrees,WindSpeedMPH,WindSpeedGustMPH,Humidity,HourlyPrecipIn,Conditions,Clouds,dailyrainin,SoftwareType,DateUTC
2013-03-08 00:02:00,18.2,16.0,30.41,SSE,163,0.0,0.0,91,0.00,,,0.00,WeatherCatV1.01B143,2013-03-08 06:02:00,
2013-03-08 00:07:00,18.3,16.1,30.42,SSE,163,0.0,0.0,91,0.00,,,0.00,WeatherCatV1.01B143,2013-03-08 06:07:00,
2013-03-08 00:12:00,18.3,16.1,30.42,SSE,163,0.0,0.0,91,0.00,,,0.00,WeatherCatV1.01B143,2013-03-08 06:12:00,
2013-03-08 00:17:00,18.2,16.0,30.42,SSE,163,0.0,0.0,91,0.00,,,0.00,WeatherCatV1.01B143,2013-03-08 06:17:00,
2013-03-08 00:22:00,18.3,16.4,30.42,SSE,163,0.0,0.0,92,0.00,,,0.00,WeatherCatV1.01B143,2013-03-08 06:22:00,
2013-03-08 00:27:00,18.4,16.5,30.42,SSE,163,0.0,0.0,92,0.00,,,0.00,WeatherCatV1.01B143,2013-03-08 06:27:00,
2013-03-08 00:32:00,18.8,16.9,30.42,SSE,163,0.0,0.0,92,0.00,,,0.00,WeatherCatV1.01B143,2013-03-08 06:32:00,
2013-03-08 00:37:00,18.7,16.5,30.42,SSE,163,0.0,0.0,91,0.00,,,0.00,WeatherCatV1.01B143,2013-03-08 06:37:00,
2013-03-08 00:42:00,18.4,16.2,30.42,SSE,163,0.0,0.0,91,0.00,,,0.00,WeatherCatV1.01B143,2013-03-08 06:42:00,
2013-03-08 00:47:00,18.2,16.0,30.42,SSE,163,0.0,0.0,91,0.00,,,0.00,WeatherCatV1.01B143,2013-03-08 06:47:00,
2013-03-08 00:52:00,18.1,16.2,30.42,SSE,163,0.0,0.0,92,0.00,,,0.00,WeatherCatV1.01B143,2013-03-08 06:52:00,
2013-03-08 00:57:00,18.1,16.2,30.41,SSE,163,0.0,0.0,92,0.00,,,0.00,WeatherCatV1.01B143,2013-03-08 06:57:00,
2013-03-08 01:02:00,18.2,16.3,30.41,SSE,163,0.0,0.0,92,0.00,,,0.00,WeatherCatV1.01B143,2013-03-08 07:02:00,
2013-03-08 01:07:00,18.2,16.3,30.41,SSE,163,0.0,0.0,92,0.00,,,0.00,WeatherCatV1.01B143,2013-03-08 07:07:00,
2013-03-08 01:12:00,18.2,16.3,30.41,SSE,163,0.0,0.0,92,0.00,,,0.00,WeatherCatV1.01B143,2013-03-08 07:12:00,
2013-03-08 01:17:00,18.0,16.1,30.42,SSE,163,0.0,0.0,92,0.00,,,0.00,WeatherCatV1.01B143,2013-03-08 07:17:00,
2013-03-08 01:22:00,18.1,16.2,30.42,SSE,163,0.0,0.0,92,0.00,,,0.00,WeatherCatV1.01B143,2013-03-08 07:22:00,
2013-03-08 01:27:00,18.4,16.7,30.42,SSE,163,0.0,0.0,93,0.00,,,0.00,WeatherCatV1.01B143,2013-03-08 07:27:00,
2013-03-08 01:32:00,18.6,16.9,30.43,SSE,163,0.0,0.0,93,0.00,,,0.00,WeatherCatV1.01B143,2013-03-08 07:32:00,
2013-03-08 01:37:00,18.8,17.1,30.43,SSE,163,0.0,0.0,93,0.00,,,0.00,WeatherCatV1.01B143,2013-03-08 07:37:00,
2013-03-08 01:42:00,18.8,16.9,30.43,SSE,163,0.0,0.0,92,0.00,,,0.00,WeatherCatV1.01B143,2013-03-08 07:42:00,
2013-03-08 01:47:00,18.7,16.8,30.44,SSE,163,0.0,0.0,92,0.00,,,0.00,WeatherCatV1.01B143,2013-03-08 07:47:00,
2013-03-08 01:52:00,18.7,16.8,30.44,SSE,163,0.0,0.0,92,0.00,,,0.00,WeatherCatV1.01B143,2013-03-08 07:52:00,
2013-03-08 01:57:00,18.3,16.4,30.44,SSE,163,0.0,0.0,92,0.00,,,0.00,WeatherCatV1.01B143,2013-03-08 07:57:00,
2013-03-08 02:02:00,18.0,16.1,30.44,SSE,163,0.0,0.0,92,0.00,,,0.00,WeatherCatV1.01B143,2013-03-08 08:02:00,
2013-03-08 02:07:00,18.1,16.4,30.44,SSE,163,0.0,0.0,93,0.00,,,0.00,WeatherCatV1.01B143,2013-03-08 08:07:00,
2013-03-08 02:12:00,18.1,16.4,30.44,SSE,163,0.0,0.0,93,0.00,,,0.00,WeatherCatV1.01B143,2013-03-08 08:12:00,
2013-03-08 02:17:00,18.2,16.5,30.44,SSE,163,0.0,0.0,93,0.00,,,0.00,WeatherCatV1.01B143,2013-03-08 08:17:00,
2013-03-08 02:22:00,17.9,16.0,30.44,SSE,163,0.0,0.0,92,0.00,,,0.00,WeatherCatV1.01B143,2013-03-08 08:22:00,
2013-03-08 02:27:00,17.9,16.2,30.44,SSE,163,0.0,0.0,93,0.00,,,0.00,WeatherCatV1.01B143,2013-03-08 08:27:00,
2013-03-08 02:32:00,17.8,16.1,30.44,SSE,163,0.0,0.0,93,0.00,,,0.00,WeatherCatV1.01B143,2013-03-08 08:32:00,
2013-03-08 02:37:00,17.7,15.8,30.44,SSE,163,0.0,0.0,92,0.00,,,0.00,WeatherCatV1.01B143,2013-03-08 08:37:00,
2013-03-08 02:42:00,17.5,15.6,30.44,SSE,163,0.0,0.0,92,0.00,,,0.00,WeatherCatV1.01B143,2013-03-08 08:42:00,
2013-03-08 02:47:00,17.3,15.4,30.43,SSE,163,0.0,0.0,92,0.00,,,0.00,WeatherCatV1.01B143,2013-03-08 08:47:00,
2013-03-08 02:52:00,17.0,15.1,30.43,SSE,163,0.0,0.0,92,0.00,,,0.00,WeatherCatV1.01B143,2013-03-08 08:52:00,
2013-03-08 02:57:00,16.7,14.8,30.43,SSE,163,0.0,0.0,92,0.00,,,0.00,WeatherCatV1.01B143,2013-03-08 08:57:00,
2013-03-08 03:02:00,16.4,14.5,30.43,SSE,163,0.0,0.0,92,0.00,,,0.00,WeatherCatV1.01B143,2013-03-08 09:02:00,
2013-03-08 03:07:00,16.1,14.2,30.42,SSE,163,0.0,0.0,92,0.00,,,0.00,WeatherCatV1.01B143,2013-03-08 09:07:00,
2013-03-08 03:12:00,15.9,14.0,30.42,SSE,163,0.0,0.0,92,0.00,,,0.00,WeatherCatV1.01B143,2013-03-08 09:12:00,
2013-03-08 03:17:00,15.7,13.8,30.42,SSE,163,0.0,0.0,92,0.00,,,0.00,WeatherCatV1.01B143,2013-03-08 09:17:00,
2013-03-08 03:22:00,15.6,13.7,30.42,SSE,163,0.0,0.0,92,0.00,,,0.00,WeatherCatV1.01B143,2013-03-08 09:22:00,
2013-03-08 03:27:00,15.5,13.6,30.42,SSE,163,0.0,0.0,92,0.00,,,0.00,WeatherCatV1.01B143,2013-03-08 09:27:00,
2013-03-08 03:32:00,15.5,13.8,30.42,SSE,163,0.0,0.0,93,0.00,,,0.00,WeatherCatV1.01B143,2013-03-08 09:32:00,
2013-03-08 03:37:00,15.4,13.7,30.42,SSE,163,0.0,0.0,93,0.00,,,0.00,WeatherCatV1.01B143,2013-03-08 09:37:00,
2013-03-08 03:42:00,15.3,13.4,30.42,SSE,163,0.0,0.0,92,0.00,,,0.00,WeatherCatV1.01B143,2013-03-08 09:42:00,
2013-03-08 03:47:00,15.0,13.1,30.42,SSE,163,0.0,0.0,92,0.00,,,0.00,WeatherCatV1.01B143,2013-03-08 09:47:00,
2013-03-08 03:52:00,14.7,12.8,30.42,SSE,163,0.0,0.0,92,0.00,,,0.00,WeatherCatV1.01B143,2013-03-08 09:52:00,
2013-03-08 03:57:00,14.4,12.5,30.42,SSE,163,0.0,0.0,92,0.00,,,0.00,WeatherCatV1.01B143,2013-03-08 09:57:00,
2013-03-08 04:02:00,14.1,12.2,30.42,SSE,163,0.0,0.0,92,0.00,,,0.00,WeatherCatV1.01B143,2013-03-08 10:02:00,
2013-03-08 04:07:00,13.9,12.0,30.43,SSE,163,0.0,0.0,92,0.00,,,0.00,WeatherCatV1.01B143,2013-03-08 10:07:00,
2013-03-08 04:12:00,13.9,12.0,30.43,SSE,163,0.0,0.0,92,0.00,,,0.00,WeatherCatV1.01B143,2013-03-08 10:12:00,
2013-03-08 04:17:00,14.1,12.2,30.43,SSE,163,0.0,0.0,92,0.00,,,0.00,WeatherCatV1.01B143,2013-03-08 10:17:00,
2013-03-08 04:22:00,14.0,12.1,30.43,SSE,163,0.0,0.0,92,0.00,,,0.00,WeatherCatV1.01B143,2013-03-08 10:22:00,
2013-03-08 04:27:00,14.2,12.6,30.43,SSE,163,0.0,0.0,93,0.00,,,0.00,WeatherCatV1.01B143,2013-03-08 10:27:00,
2013-03-08 04:32:00,14.7,13.1,30.44,SSE,163,0.0,0.0,93,0.00,,,0.00,WeatherCatV1.01B143,2013-03-08 10:32:00,
2013-03-08 04:37:00,14.6,13.0,30.44,SSE,163,0.0,0.0,93,0.00,,,0.00,WeatherCatV1.01B143,2013-03-08 10:37:00,
2013-03-08 04:42:00,14.3,12.7,30.44,SSE,163,0.0,0.0,93,0.00,,,0.00,WeatherCatV1.01B143,2013-03-08 10:42:00,
2013-03-08 04:47:00,14.4,12.8,30.44,SSE,163,0.0,0.0,93,0.00,,,0.00,WeatherCatV1.01B143,2013-03-08 10:47:00,
2013-03-08 04:52:00,14.5,12.9,30.44,SSE,163,0.0,0.0,93,0.00,,,0.00,WeatherCatV1.01B143,2013-03-08 10:52:00,
2013-03-08 04:57:00,14.5,12.9,30.44,SSE,163,0.0,0.0,93,0.00,,,0.00,WeatherCatV1.01B143,2013-03-08 10:57:00,
2013-03-08 05:02:00,14.4,12.5,30.44,SSE,163,0.0,1.0,92,0.00,,,0.00,WeatherCatV1.01B143,2013-03-08 11:02:00,
2013-03-08 05:07:00,14.3,12.4,30.44,SSE,163,0.0,0.0,92,0.00,,,0.00,WeatherCatV1.01B143,2013-03-08 11:07:00,
2013-03-08 05:12:00,14.1,12.2,30.44,SSE,163,0.0,0.0,92,0.00,,,0.00,WeatherCatV1.01B143,2013-03-08 11:12:00,
2013-03-08 05:17:00,14.0,12.1,30.44,SSE,163,0.0,0.0,92,0.00,,,0.00,WeatherCatV1.01B143,2013-03-08 11:17:00,
2013-03-08 05:22:00,14.0,12.1,30.45,SSE,163,0.0,0.0,92,0.00,,,0.00,WeatherCatV1.01B143,2013-03-08 11:22:00,
2013-03-08 05:27:00,13.9,12.0,30.45,SSE,163,0.0,0.0,92,0.00,,,0.00,WeatherCatV1.01B143,2013-03-08 11:27:00,
2013-03-08 05:32:00,13.7,11.8,30.45,SSE,163,0.0,0.0,92,0.00,,,0.00,WeatherCatV1.01B143,2013-03-08 11:32:00,
2013-03-08 05:37:00,13.6,11.7,30.45,SSE,163,0.0,0.0,92,0.00,,,0.00,WeatherCatV1.01B143,2013-03-08 11:37:00,
2013-03-08 05:42:00,13.4,11.5,30.45,SSE,163,0.0,0.0,92,0.00,,,0.00,WeatherCatV1.01B143,2013-03-08 11:42:00,
2013-03-08 05:47:00,13.3,11.4,30.45,SSE,163,0.0,0.0,92,0.00,,,0.00,WeatherCatV1.01B143,2013-03-08 11:47:00,
2013-03-08 05:52:00,13.3,11.4,30.45,SSE,163,0.0,0.0,92,0.00,,,0.00,WeatherCatV1.01B143,2013-03-08 11:52:00,
2013-03-08 05:57:00,13.4,11.5,30.45,SSE,163,0.0,0.0,92,0.00,,,0.00,WeatherCatV1.01B143,2013-03-08 11:57:00,
2013-03-08 06:02:00,13.3,11.4,30.45,SSE,163,0.0,0.0,92,0.00,,,0.00,WeatherCatV1.01B143,2013-03-08 12:02:00,
2013-03-08 06:07:00,13.2,11.3,30.45,SSE,163,0.0,0.0,92,0.00,,,0.00,WeatherCatV1.01B143,2013-03-08 12:07:00,
2013-03-08 06:12:00,13.1,11.2,30.45,SSE,163,0.0,0.0,92,0.00,,,0.00,WeatherCatV1.01B143,2013-03-08 12:12:00,
2013-03-08 06:17:00,12.8,10.9,30.45,SSE,163,0.0,0.0,92,0.00,,,0.00,WeatherCatV1.01B143,2013-03-08 12:17:00,
2013-03-08 06:22:00,12.6,10.7,30.45,SSE,163,0.0,0.0,92,0.00,,,0.00,WeatherCatV1.01B143,2013-03-08 12:22:00,
2013-03-08 06:27:00,12.6,10.7,30.45,SSE,163,0.0,0.0,92,0.00,,,0.00,WeatherCatV1.01B143,2013-03-08 12:27:00,
2013-03-08 06:32:00,12.5,10.6,30.45,SSE,163,0.0,0.0,92,0.00,,,0.00,WeatherCatV1.01B143,2013-03-08 12:32:00,
2013-03-08 06:37:00,12.5,10.6,30.45,SSE,163,0.0,0.0,92,0.00,,,0.00,WeatherCatV1.01B143,2013-03-08 12:37:00,
2013-03-08 06:42:00,12.4,10.5,30.45,SSE,163,0.0,0.0,92,0.00,,,0.00,WeatherCatV1.01B143,2013-03-08 12:42:00,
2013-03-08 06:47:00,12.4,10.5,30.45,SSE,163,0.0,0.0,92,0.00,,,0.00,WeatherCatV1.01B143,2013-03-08 12:47:00,
2013-03-08 06:52:00,12.9,11.3,30.45,SSE,163,0.0,0.0,93,0.00,,,0.00,WeatherCatV1.01B143,2013-03-08 12:52:00,
2013-03-08 06:57:00,13.2,11.6,30.45,SSE,163,0.0,0.0,93,0.00,,,0.00,WeatherCatV1.01B143,2013-03-08 12:57:00,
2013-03-08 07:02:00,13.7,12.1,30.45,SSE,163,0.0,0.0,93,0.00,,,0.00,WeatherCatV1.01B143,2013-03-08 13:02:00,
2013-03-08 07:07:00,14.1,12.5,30.46,SSE,163,0.0,0.0,93,0.00,,,0.00,WeatherCatV1.01B143,2013-03-08 13:07:00,
2013-03-08 07:12:00,14.5,12.9,30.46,SSE,163,0.0,0.0,93,0.00,,,0.00,WeatherCatV1.01B143,2013-03-08 13:12:00,
2013-03-08 07:17:00,15.2,13.8,30.46,SSE,163,0.0,0.0,94,0.00,,,0.00,WeatherCatV1.01B143,2013-03-08 13:17:00,
2013-03-08 07:22:00,15.6,14.2,30.46,SSE,163,0.0,0.0,94,0.00,,,0.00,WeatherCatV1.01B143,2013-03-08 13:22:00,
2013-03-08 07:27:00,16.2,14.8,30.46,SSE,163,0.0,0.0,94,0.00,,,0.00,WeatherCatV1.01B143,2013-03-08 13:27:00,
2013-03-08 07:32:00,16.7,15.3,30.46,SSE,163,0.0,0.0,94,0.00,,,0.00,WeatherCatV1.01B143,2013-03-08 13:32:00,
2013-03-08 07:37:00,17.2,15.8,30.46,SSE,163,0.0,0.0,94,0.00,,,0.00,WeatherCatV1.01B143,2013-03-08 13:37:00,
2013-03-08 07:42:00,18.1,16.7,30.46,SSE,163,0.0,0.0,94,0.00,,,0.00,WeatherCatV1.01B143,2013-03-08 13:42:00,
2013-03-08 07:47:00,18.9,17.7,30.46,SSE,163,0.0,0.0,95,0.00,,,0.00,WeatherCatV1.01B143,2013-03-08 13:47:00,
2013-03-08 07:52:00,19.6,18.4,30.46,SSE,163,0.0,0.0,95,0.00,,,0.00,WeatherCatV1.01B143,2013-03-08 13:52:00,
2013-03-08 07:57:00,20.4,19.2,30.46,SSE,163,0.0,0.0,95,0.00,,,0.00,WeatherCatV1.01B143,2013-03-08 13:57:00,
2013-03-08 08:02:00,21.9,20.9,30.46,South,174,0.0,1.0,96,0.00,,,0.00,WeatherCatV1.01B143,2013-03-08 14:02:00,
2013-03-08 08:07:00,23.7,23.0,30.46,SSW,204,0.0,0.0,97,0.00,,,0.00,WeatherCatV1.01B143,2013-03-08 14:07:00,
2013-03-08 08:12:00,24.8,24.1,30.46,SSW,198,0.0,0.0,97,0.00,,,0.00,WeatherCatV1.01B143,2013-03-08 14:12:00,
2013-03-08 08:17:00,25.6,24.9,30.46,SSW,198,0.0,0.0,97,0.00,,,0.00,WeatherCatV1.01B143,2013-03-08 14:17:00,
2013-03-08 08:22:00,26.3,25.6,30.46,SW,222,0.0,0.0,97,0.00,,,0.00,WeatherCatV1.01B143,2013-03-08 14:22:00,
2013-03-08 08:27:00,27.0,26.3,30.46,SSW,211,0.0,2.0,97,0.00,,,0.00,WeatherCatV1.01B143,2013-03-08 14:27:00,
2013-03-08 08:32:00,27.5,26.3,30.46,SSE,149,0.0,0.0,95,0.00,,,0.00,WeatherCatV1.01B143,2013-03-08 14:32:00,
2013-03-08 08:37:00,28.0,26.2,30.46,WSW,239,0.0,1.0,93,0.00,,,0.00,WeatherCatV1.01B143,2013-03-08 14:37:00,
2013-03-08 08:42:00,28.5,26.2,30.46,SW,214,0.0,1.0,91,0.00,,,0.00,WeatherCatV1.01B143,2013-03-08 14:42:00,
2013-03-08 08:47:00,28.9,26.3,30.46,SE,139,1.0,2.0,90,0.00,,,0.00,WeatherCatV1.01B143,2013-03-08 14:47:00,
2013-03-08 08:52:00,29.2,26.1,30.46,SSW,197,3.0,3.0,88,0.00,,,0.00,WeatherCatV1.01B143,2013-03-08 14:52:00,
2013-03-08 08:57:00,29.6,26.2,30.46,South,170,2.0,2.0,87,0.00,,,0.00,WeatherCatV1.01B143,2013-03-08 14:57:00,
2013-03-08 09:02:00,30.0,26.3,30.46,South,179,4.0,4.0,86,0.00,,,0.00,WeatherCatV1.01B143,2013-03-08 15:02:00,
2013-03-08 09:07:00,30.3,26.3,30.46,South,188,0.0,3.0,85,0.00,,,0.00,WeatherCatV1.01B143,2013-03-08 15:07:00,
2013-03-08 09:12:00,30.8,26.5,30.46,SSW,204,0.0,2.0,84,0.00,,,0.00,WeatherCatV1.01B143,2013-03-08 15:12:00,
2013-03-08 09:17:00,31.1,26.6,30.46,SSW,197,0.0,2.0,83,0.00,,,0.00,WeatherCatV1.01B143,2013-03-08 15:17:00,
2013-03-08 09:22:00,31.4,26.6,30.47,South,173,0.0,1.0,82,0.00,,,0.00,WeatherCatV1.01B143,2013-03-08 15:22:00,
2013-03-08 09:27:00,31.6,26.5,30.46,SSE,158,0.0,0.0,81,0.00,,,0.00,WeatherCatV1.01B143,2013-03-08 15:27:00,
2013-03-08 09:32:00,32.1,26.6,30.46,SW,214,2.0,3.0,80,0.00,,,0.00,WeatherCatV1.01B143,2013-03-08 15:32:00,
2013-03-08 09:37:00,32.5,27.0,30.46,SSW,207,0.0,2.0,80,0.00,,,0.00,WeatherCatV1.01B143,2013-03-08 15:37:00,
2013-03-08 09:42:00,32.9,26.8,30.46,SE,134,0.0,2.0,78,0.00,,,0.00,WeatherCatV1.01B143,2013-03-08 15:42:00,
2013-03-08 09:47:00,33.3,27.2,30.46,SW,231,2.0,2.0,78,0.00,,,0.00,WeatherCatV1.01B143,2013-03-08 15:47:00,
2013-03-08 09:52:00,33.7,27.3,30.46,SSW,205,0.0,1.0,77,0.00,,,0.00,WeatherCatV1.01B143,2013-03-08 15:52:00,
2013-03-08 09:57:00,34.1,27.3,30.46,SW,226,1.0,2.0,76,0.00,,,0.00,WeatherCatV1.01B143,2013-03-08 15:57:00,
2013-03-08 10:02:00,34.7,27.6,30.46,NNE,25,2.0,2.0,75,0.00,,,0.00,WeatherCatV1.01B143,2013-03-08 16:02:00,
2013-03-08 10:07:00,35.3,27.9,30.46,South,176,0.0,1.0,74,0.00,,,0.00,WeatherCatV1.01B143,2013-03-08 16:07:00,
2013-03-08 10:12:00,35.9,27.8,30.46,SSW,204,1.0,4.0,72,0.00,,,0.00,WeatherCatV1.01B143,2013-03-08 16:12:00,
2013-03-08 10:17:00,36.3,27.8,30.45,SSW,210,0.0,1.0,71,0.00,,,0.00,WeatherCatV1.01B143,2013-03-08 16:17:00,
2013-03-08 10:22:00,36.7,27.9,30.45,SE,146,0.0,1.0,70,0.00,,,0.00,WeatherCatV1.01B143,2013-03-08 16:22:00,
2013-03-08 10:27:00,37.2,28.0,30.45,SW,219,1.0,3.0,69,0.00,,,0.00,WeatherCatV1.01B143,2013-03-08 16:27:00,
2013-03-08 10:32:00,37.5,27.9,30.45,South,180,0.0,2.0,68,0.00,,,0.00,WeatherCatV1.01B143,2013-03-08 16:32:00,
2013-03-08 10:37:00,37.9,27.6,30.44,SW,217,0.0,1.0,66,0.00,,,0.00,WeatherCatV1.01B143,2013-03-08 16:37:00,
2013-03-08 10:42:00,38.1,27.8,30.44,SSW,192,2.0,4.0,66,0.00,,,0.00,WeatherCatV1.01B143,2013-03-08 16:42:00,
2013-03-08 10:47:00,38.1,27.4,30.44,SSE,148,5.0,6.0,65,0.00,,,0.00,WeatherCatV1.01B143,2013-03-08 16:47:00,
2013-03-08 10:52:00,38.0,27.3,30.44,SW,219,1.0,2.0,65,0.00,,,0.00,WeatherCatV1.01B143,2013-03-08 16:52:00,
2013-03-08 10:57:00,38.1,27.8,30.44,ESE,117,1.0,5.0,66,0.00,,,0.00,WeatherCatV1.01B143,2013-03-08 16:57:00,
2013-03-08 11:02:00,38.1,27.4,30.44,East,97,1.0,7.0,65,0.00,,,0.00,WeatherCatV1.01B143,2013-03-08 17:02:00,
2013-03-08 11:07:00,38.5,27.4,30.44,ESE,113,0.0,5.0,64,0.00,,,0.00,WeatherCatV1.01B143,2013-03-08 17:07:00,
2013-03-08 11:12:00,38.9,28.2,30.44,SSW,198,1.0,2.0,65,0.00,,,0.01,WeatherCatV1.01B143,2013-03-08 17:12:00,
2013-03-08 11:17:00,39.2,27.7,30.45,SSE,159,3.0,6.0,63,0.00,,,0.01,WeatherCatV1.01B143,2013-03-08 17:17:00,
2013-03-08 11:22:00,39.1,27.6,30.45,South,188,2.0,6.0,63,0.00,,,0.01,WeatherCatV1.01B143,2013-03-08 17:22:00,
2013-03-08 11:27:00,39.3,27.8,30.45,SSW,194,1.0,2.0,63,0.00,,,0.01,WeatherCatV1.01B143,2013-03-08 17:27:00,
2013-03-08 11:32:00,39.9,28.3,30.45,SW,219,0.0,2.0,63,0.00,,,0.01,WeatherCatV1.01B143,2013-03-08 17:32:00,
2013-03-08 11:37:00,40.1,27.7,30.45,SSW,210,1.0,8.0,61,0.00,,,0.01,WeatherCatV1.01B143,2013-03-08 17:37:00,
2013-03-08 11:42:00,40.1,27.7,30.45,SSW,207,2.0,4.0,61,0.00,,,0.01,WeatherCatV1.01B143,2013-03-08 17:42:00,
2013-03-08 11:47:00,40.0,27.7,30.45,SSW,194,1.0,3.0,61,0.00,,,0.01,WeatherCatV1.01B143,2013-03-08 17:47:00,
2013-03-08 11:52:00,40.5,27.7,30.45,South,173,3.0,7.0,60,0.00,,,0.01,WeatherCatV1.01B143,2013-03-08 17:52:00,
2013-03-08 11:57:00,40.7,27.5,30.44,SSW,207,4.0,6.0,59,0.00,,,0.01,WeatherCatV1.01B143,2013-03-08 17:57:00,
2013-03-08 12:02:00,40.8,27.6,30.44,South,169,0.0,2.0,59,0.00,,,0.01,WeatherCatV1.01B143,2013-03-08 18:02:00,
2013-03-08 12:07:00,41.3,27.7,30.44,SSW,203,2.0,3.0,58,0.00,,,0.01,WeatherCatV1.01B143,2013-03-08 18:07:00,
2013-03-08 12:12:00,41.3,27.7,30.43,SSW,204,1.0,5.0,58,0.00,,,0.01,WeatherCatV1.01B143,2013-03-08 18:12:00,
2013-03-08 12:17:00,41.4,27.3,30.44,SSW,203,2.0,7.0,57,0.00,,,0.01,WeatherCatV1.01B143,2013-03-08 18:17:00,
2013-03-08 12:22:00,41.0,26.9,30.43,South,181,3.0,6.0,57,0.00,,,0.01,WeatherCatV1.01B143,2013-03-08 18:22:00,
2013-03-08 12:27:00,41.2,27.1,30.43,South,190,4.0,9.0,57,0.00,,,0.01,WeatherCatV1.01B143,2013-03-08 18:27:00,
2013-03-08 12:32:00,41.0,27.4,30.42,South,181,6.0,10.0,58,0.00,,,0.01,WeatherCatV1.01B143,2013-03-08 18:32:00,
2013-03-08 12:37:00,40.8,27.2,30.42,SSW,195,2.0,8.0,58,0.00,,,0.01,WeatherCatV1.01B143,2013-03-08 18:37:00,
2013-03-08 12:42:00,40.6,26.6,30.42,SSW,210,4.0,9.0,57,0.00,,,0.01,WeatherCatV1.01B143,2013-03-08 18:42:00,
2013-03-08 12:47:00,40.6,27.0,30.42,South,186,3.0,8.0,58,0.00,,,0.01,WeatherCatV1.01B143,2013-03-08 18:47:00,
2013-03-08 12:52:00,40.4,26.8,30.42,SSW,200,6.0,9.0,58,0.00,,,0.01,WeatherCatV1.01B143,2013-03-08 18:52:00,
2013-03-08 12:57:00,40.6,27.0,30.41,SW,228,3.0,9.0,58,0.00,,,0.01,WeatherCatV1.01B143,2013-03-08 18:57:00,
2013-03-08 13:02:00,41.0,27.4,30.41,South,191,1.0,6.0,58,0.00,,,0.01,WeatherCatV1.01B143,2013-03-08 19:02:00,
2013-03-08 13:07:00,41.5,27.4,30.41,SSW,198,3.0,6.0,57,0.00,,,0.01,WeatherCatV1.01B143,2013-03-08 19:07:00,
2013-03-08 13:12:00,41.3,26.4,30.41,SW,221,3.0,9.0,55,0.00,,,0.01,WeatherCatV1.01B143,2013-03-08 19:12:00,
2013-03-08 13:17:00,41.0,26.5,30.40,South,185,7.0,7.0,56,0.00,,,0.01,WeatherCatV1.01B143,2013-03-08 19:17:00,
2013-03-08 13:22:00,40.9,26.4,30.40,SSW,208,5.0,9.0,56,0.00,,,0.01,WeatherCatV1.01B143,2013-03-08 19:22:00,
2013-03-08 13:27:00,41.0,26.5,30.40,SSW,203,1.0,8.0,56,0.00,,,0.01,WeatherCatV1.01B143,2013-03-08 19:27:00,
2013-03-08 13:32:00,41.4,27.3,30.39,SW,232,0.0,3.0,57,0.00,,,0.01,WeatherCatV1.01B143,2013-03-08 19:32:00,
2013-03-08 13:37:00,42.1,26.7,30.39,SSW,203,1.0,6.0,54,0.00,,,0.01,WeatherCatV1.01B143,2013-03-08 19:37:00,
2013-03-08 13:42:00,42.3,26.4,30.39,SSW,198,3.0,8.0,53,0.00,,,0.01,WeatherCatV1.01B143,2013-03-08 19:42:00,
2013-03-08 13:47:00,42.3,26.9,30.39,SSE,150,2.0,6.0,54,0.00,,,0.01,WeatherCatV1.01B143,2013-03-08 19:47:00,
2013-03-08 13:52:00,42.3,26.9,30.39,SSW,207,2.0,7.0,54,0.00,,,0.01,WeatherCatV1.01B143,2013-03-08 19:52:00,
2013-03-08 13:57:00,42.5,27.0,30.39,SSE,158,3.0,7.0,54,0.00,,,0.01,WeatherCatV1.01B143,2013-03-08 19:57:00,
2013-03-08 14:02:00,42.5,27.0,30.39,SSW,198,4.0,5.0,54,0.00,,,0.01,WeatherCatV1.01B143,2013-03-08 20:02:00,
2013-03-08 14:07:00,42.9,27.0,30.39,SSW,208,3.0,6.0,53,0.00,,,0.01,WeatherCatV1.01B143,2013-03-08 20:07:00,
2013-03-08 14:12:00,43.2,27.2,30.39,SSW,194,0.0,4.0,53,0.00,,,0.01,WeatherCatV1.01B143,2013-03-08 20:12:00,
2013-03-08 14:17:00,43.7,27.2,30.38,WSW,252,2.0,6.0,52,0.00,,,0.01,WeatherCatV1.01B143,2013-03-08 20:17:00,
2013-03-08 14:22:00,43.8,27.3,30.38,SSE,158,0.0,2.0,52,0.00,,,0.01,WeatherCatV1.01B143,2013-03-08 20:22:00,
2013-03-08 14:27:00,44.2,26.8,30.38,South,190,0.0,4.0,50,0.00,,,0.01,WeatherCatV1.01B143,2013-03-08 20:27:00,
2013-03-08 14:32:00,44.4,26.9,30.38,SSW,200,0.0,1.0,50,0.00,,,0.01,WeatherCatV1.01B143,2013-03-08 20:32:00,
2013-03-08 14:37:00,44.4,26.5,30.38,SSW,209,2.0,7.0,49,0.00,,,0.01,WeatherCatV1.01B143,2013-03-08 20:37:00,
2013-03-08 14:42:00,43.8,26.9,30.38,SSW,194,0.0,6.0,51,0.00,,,0.01,WeatherCatV1.01B143,2013-03-08 20:42:00,
2013-03-08 14:47:00,43.6,26.7,30.38,SSW,204,3.0,6.0,51,0.00,,,0.01,WeatherCatV1.01B143,2013-03-08 20:47:00,
2013-03-08 14:52:00,43.8,26.9,30.38,SSE,167,3.0,3.0,51,0.00,,,0.01,WeatherCatV1.01B143,2013-03-08 20:52:00,
2013-03-08 14:57:00,44.1,26.7,30.38,SSE,167,1.0,4.0,50,0.00,,,0.01,WeatherCatV1.01B143,2013-03-08 20:57:00,
2013-03-08 15:02:00,43.9,26.5,30.38,SSW,200,2.0,5.0,50,0.00,,,0.01,WeatherCatV1.01B143,2013-03-08 21:02:00,
2013-03-08 15:07:00,43.7,26.3,30.37,SSW,207,0.0,5.0,50,0.00,,,0.01,WeatherCatV1.01B143,2013-03-08 21:07:00,
2013-03-08 15:12:00,44.0,26.6,30.37,SW,217,2.0,4.0,50,0.00,,,0.01,WeatherCatV1.01B143,2013-03-08 21:12:00,
2013-03-08 15:17:00,43.9,26.5,30.37,SSW,195,7.0,7.0,50,0.00,,,0.01,WeatherCatV1.01B143,2013-03-08 21:17:00,
2013-03-08 15:22:00,43.4,26.5,30.38,South,184,2.0,7.0,51,0.00,,,0.01,WeatherCatV1.01B143,2013-03-08 21:22:00,
2013-03-08 15:27:00,42.9,26.0,30.37,South,190,5.0,6.0,51,0.00,,,0.01,WeatherCatV1.01B143,2013-03-08 21:27:00,
2013-03-08 15:32:00,42.7,25.8,30.38,SSE,165,4.0,5.0,51,0.00,,,0.01,WeatherCatV1.01B143,2013-03-08 21:32:00,
2013-03-08 15:37:00,42.7,26.8,30.37,SSW,203,2.0,4.0,53,0.00,,,0.01,WeatherCatV1.01B143,2013-03-08 21:37:00,
2013-03-08 15:42:00,42.7,26.8,30.37,South,174,5.0,6.0,53,0.00,,,0.01,WeatherCatV1.01B143,2013-03-08 21:42:00,
2013-03-08 15:47:00,42.9,26.5,30.36,SSW,194,2.0,6.0,52,0.00,,,0.01,WeatherCatV1.01B143,2013-03-08 21:47:00,
2013-03-08 15:52:00,42.9,26.0,30.36,SSE,165,3.0,6.0,51,0.00,,,0.01,WeatherCatV1.01B143,2013-03-08 21:52:00,
2013-03-08 15:57:00,43.4,26.5,30.36,SSW,205,1.0,4.0,51,0.00,,,0.01,WeatherCatV1.01B143,2013-03-08 21:57:00,
2013-03-08 16:02:00,43.1,26.2,30.36,South,177,1.0,4.0,51,0.00,,,0.01,WeatherCatV1.01B143,2013-03-08 22:02:00,
2013-03-08 16:07:00,43.3,26.9,30.36,SSW,194,2.0,6.0,52,0.00,,,0.01,WeatherCatV1.01B143,2013-03-08 22:07:00,
2013-03-08 16:12:00,43.5,27.1,30.36,South,185,1.0,2.0,52,0.00,,,0.01,WeatherCatV1.01B143,2013-03-08 22:12:00,
2013-03-08 16:17:00,44.3,27.3,30.35,South,184,1.0,4.0,51,0.00,,,0.01,WeatherCatV1.01B143,2013-03-08 22:17:00,
2013-03-08 16:22:00,44.2,27.2,30.35,South,172,0.0,2.0,51,0.00,,,0.01,WeatherCatV1.01B143,2013-03-08 22:22:00,
2013-03-08 16:27:00,43.9,27.0,30.35,SSW,193,0.0,2.0,51,0.00,,,0.01,WeatherCatV1.01B143,2013-03-08 22:27:00,
2013-03-08 16:32:00,44.0,27.5,30.35,SSW,197,1.0,3.0,52,0.00,,,0.01,WeatherCatV1.01B143,2013-03-08 22:32:00,
2013-03-08 16:37:00,43.7,27.2,30.35,South,188,0.0,1.0,52,0.00,,,0.01,WeatherCatV1.01B143,2013-03-08 22:37:00,
2013-03-08 16:42:00,44.2,27.7,30.35,SW,221,0.0,1.0,52,0.00,,,0.01,WeatherCatV1.01B143,2013-03-08 22:42:00,
2013-03-08 16:47:00,44.5,27.5,30.35,SSW,212,0.0,1.0,51,0.00,,,0.01,WeatherCatV1.01B143,2013-03-08 22:47:00,
2013-03-08 16:52:00,44.4,27.4,30.35,South,172,1.0,2.0,51,0.00,,,0.01,WeatherCatV1.01B143,2013-03-08 22:52:00,
2013-03-08 16:57:00,44.5,28.0,30.35,SSE,163,0.0,2.0,52,0.00,,,0.01,WeatherCatV1.01B143,2013-03-08 22:57:00,
2013-03-08 17:02:00,43.9,27.4,30.36,SSW,205,0.0,1.0,52,0.00,,,0.01,WeatherCatV1.01B143,2013-03-08 23:02:00,
2013-03-08 17:07:00,42.8,27.3,30.36,SSW,207,1.0,3.0,54,0.00,,,0.01,WeatherCatV1.01B143,2013-03-08 23:07:00,
2013-03-08 17:12:00,41.9,26.9,30.37,SSE,168,2.0,2.0,55,0.00,,,0.01,WeatherCatV1.01B143,2013-03-08 23:12:00,
2013-03-08 17:17:00,41.5,27.0,30.37,SSW,197,0.0,3.0,56,0.00,,,0.01,WeatherCatV1.01B143,2013-03-08 23:17:00,
2013-03-08 17:22:00,41.4,27.3,30.36,South,183,1.0,2.0,57,0.00,,,0.01,WeatherCatV1.01B143,2013-03-08 23:22:00,
2013-03-08 17:27:00,41.2,27.6,30.36,South,176,1.0,1.0,58,0.00,,,0.01,WeatherCatV1.01B143,2013-03-08 23:27:00,
2013-03-08 17:32:00,40.7,27.1,30.37,SSE,163,1.0,2.0,58,0.00,,,0.01,WeatherCatV1.01B143,2013-03-08 23:32:00,
2013-03-08 17:37:00,40.0,27.3,30.37,South,188,0.0,1.0,60,0.00,,,0.01,WeatherCatV1.01B143,2013-03-08 23:37:00,
2013-03-08 17:42:00,39.2,26.9,30.37,SSW,195,1.0,2.0,61,0.00,,,0.01,WeatherCatV1.01B143,2013-03-08 23:42:00,
2013-03-08 17:47:00,38.5,26.6,30.37,SSW,204,0.0,0.0,62,0.00,,,0.01,WeatherCatV1.01B143,2013-03-08 23:47:00,
2013-03-08 17:52:00,38.0,26.9,30.36,SSW,200,0.0,0.0,64,0.00,,,0.01,WeatherCatV1.01B143,2013-03-08 23:52:00,
2013-03-08 17:57:00,37.5,26.8,30.36,SSW,205,0.0,0.0,65,0.00,,,0.01,WeatherCatV1.01B143,2013-03-08 23:57:00,
2013-03-08 18:02:00,37.1,26.4,30.37,SSW,205,0.0,0.0,65,0.00,,,0.01,WeatherCatV1.01B143,2013-03-09 00:02:00,
2013-03-08 18:07:00,36.4,26.1,30.37,SSW,205,0.0,0.0,66,0.00,,,0.01,WeatherCatV1.01B143,2013-03-09 00:07:00,
2013-03-08 18:12:00,36.0,26.5,30.37,SSW,205,0.0,0.0,68,0.00,,,0.01,WeatherCatV1.01B143,2013-03-09 00:12:00,
2013-03-08 18:17:00,35.6,26.1,30.37,SSW,205,0.0,0.0,68,0.00,,,0.01,WeatherCatV1.01B143,2013-03-09 00:17:00,
2013-03-08 18:22:00,35.3,26.2,30.37,SSW,205,0.0,0.0,69,0.00,,,0.01,WeatherCatV1.01B143,2013-03-09 00:22:00,
2013-03-08 18:27:00,35.0,26.2,30.37,SSW,205,0.0,0.0,70,0.00,,,0.01,WeatherCatV1.01B143,2013-03-09 00:27:00,
2013-03-08 18:32:00,34.6,25.8,30.37,SSW,205,0.0,0.0,70,0.00,,,0.01,WeatherCatV1.01B143,2013-03-09 00:32:00,
2013-03-08 18:37:00,34.2,25.8,30.37,SSW,205,0.0,0.0,71,0.00,,,0.01,WeatherCatV1.01B143,2013-03-09 00:37:00,
2013-03-08 18:42:00,34.0,25.9,30.37,SSW,205,0.0,0.0,72,0.00,,,0.01,WeatherCatV1.01B143,2013-03-09 00:42:00,
2013-03-08 18:47:00,33.9,26.2,30.37,SSW,205,0.0,0.0,73,0.00,,,0.01,WeatherCatV1.01B143,2013-03-09 00:47:00,
2013-03-08 18:52:00,33.9,26.2,30.37,SSW,193,0.0,0.0,73,0.00,,,0.01,WeatherCatV1.01B143,2013-03-09 00:52:00,
2013-03-08 18:57:00,33.8,26.1,30.37,SSW,198,0.0,0.0,73,0.00,,,0.01,WeatherCatV1.01B143,2013-03-09 00:57:00,
2013-03-08 19:02:00,33.7,26.0,30.37,South,174,0.0,0.0,73,0.00,,,0.01,WeatherCatV1.01B143,2013-03-09 01:02:00,
2013-03-08 19:07:00,33.4,25.7,30.37,South,174,0.0,0.0,73,0.00,,,0.01,WeatherCatV1.01B143,2013-03-09 01:07:00,
2013-03-08 19:12:00,33.2,25.8,30.37,South,174,0.0,0.0,74,0.00,,,0.01,WeatherCatV1.01B143,2013-03-09 01:12:00,
2013-03-08 19:17:00,33.1,25.7,30.37,South,174,0.0,0.0,74,0.00,,,0.01,WeatherCatV1.01B143,2013-03-09 01:17:00,
2013-03-08 19:22:00,32.9,25.9,30.37,South,174,0.0,0.0,75,0.00,,,0.01,WeatherCatV1.01B143,2013-03-09 01:22:00,
2013-03-08 19:27:00,32.7,25.7,30.36,South,174,0.0,0.0,75,0.00,,,0.01,WeatherCatV1.01B143,2013-03-09 01:27:00,
2013-03-08 19:32:00,32.4,25.4,30.36,South,174,0.0,0.0,75,0.00,,,0.01,WeatherCatV1.01B143,2013-03-09 01:32:00,
2013-03-08 19:37:00,32.1,25.4,30.36,South,174,0.0,0.0,76,0.00,,,0.01,WeatherCatV1.01B143,2013-03-09 01:37:00,
2013-03-08 19:42:00,31.9,25.2,30.36,South,174,0.0,0.0,76,0.00,,,0.01,WeatherCatV1.01B143,2013-03-09 01:42:00,
2013-03-08 19:47:00,31.7,25.3,30.36,South,174,0.0,0.0,77,0.00,,,0.01,WeatherCatV1.01B143,2013-03-09 01:47:00,
2013-03-08 19:52:00,31.8,25.7,30.36,South,174,0.0,0.0,78,0.00,,,0.01,WeatherCatV1.01B143,2013-03-09 01:52:00,
2013-03-08 19:57:00,32.0,25.6,30.36,South,186,0.0,0.0,77,0.00,,,0.01,WeatherCatV1.01B143,2013-03-09 01:57:00,
2013-03-08 20:02:00,32.0,25.6,30.36,South,186,0.0,0.0,77,0.00,,,0.01,WeatherCatV1.01B143,2013-03-09 02:02:00,
2013-03-08 20:07:00,31.9,25.5,30.36,South,186,0.0,0.0,77,0.00,,,0.01,WeatherCatV1.01B143,2013-03-09 02:07:00,
2013-03-08 20:12:00,31.8,25.4,30.36,South,186,0.0,0.0,77,0.00,,,0.01,WeatherCatV1.01B143,2013-03-09 02:12:00,
2013-03-08 20:17:00,31.8,25.4,30.36,SSW,197,0.0,0.0,77,0.00,,,0.01,WeatherCatV1.01B143,2013-03-09 02:17:00,
2013-03-08 20:22:00,31.7,25.3,30.36,SSW,197,0.0,0.0,77,0.00,,,0.01,WeatherCatV1.01B143,2013-03-09 02:22:00,
2013-03-08 20:27:00,31.5,25.1,30.36,SSW,197,0.0,0.0,77,0.00,,,0.01,WeatherCatV1.01B143,2013-03-09 02:27:00,
2013-03-08 20:32:00,31.3,24.9,30.36,SSW,197,0.0,0.0,77,0.00,,,0.01,WeatherCatV1.01B143,2013-03-09 02:32:00,
2013-03-08 20:37:00,31.1,24.7,30.36,SSW,197,0.0,0.0,77,0.00,,,0.01,WeatherCatV1.01B143,2013-03-09 02:37:00,
2013-03-08 20:42:00,30.9,24.9,30.36,SSW,197,0.0,0.0,78,0.00,,,0.01,WeatherCatV1.01B143,2013-03-09 02:42:00,
2013-03-08 20:47:00,30.8,24.8,30.36,SSW,200,0.0,0.0,78,0.00,,,0.01,WeatherCatV1.01B143,2013-03-09 02:47:00,
2013-03-08 20:52:00,30.5,24.8,30.36,SSW,200,0.0,0.0,79,0.00,,,0.01,WeatherCatV1.01B143,2013-03-09 02:52:00,
2013-03-08 20:57:00,30.4,24.7,30.36,SSW,204,0.0,0.0,79,0.00,,,0.01,WeatherCatV1.01B143,2013-03-09 02:57:00,
2013-03-08 21:02:00,30.3,24.9,30.36,SSW,204,0.0,0.0,80,0.00,,,0.01,WeatherCatV1.01B143,2013-03-09 03:02:00,
2013-03-08 21:07:00,30.4,24.7,30.36,SSW,200,0.0,1.0,79,0.00,,,0.01,WeatherCatV1.01B143,2013-03-09 03:07:00,
2013-03-08 21:12:00,30.6,24.9,30.36,SSW,210,0.0,1.0,79,0.00,,,0.01,WeatherCatV1.01B143,2013-03-09 03:12:00,
2013-03-08 21:17:00,30.7,25.0,30.36,SW,214,0.0,1.0,79,0.00,,,0.01,WeatherCatV1.01B143,2013-03-09 03:17:00,
2013-03-08 21:22:00,30.7,25.0,30.35,SW,215,0.0,1.0,79,0.00,,,0.01,WeatherCatV1.01B143,2013-03-09 03:22:00,
2013-03-08 21:27:00,30.6,24.9,30.35,SW,215,0.0,0.0,79,0.00,,,0.01,WeatherCatV1.01B143,2013-03-09 03:27:00,
2013-03-08 21:32:00,30.5,24.8,30.35,SW,226,0.0,1.0,79,0.00,,,0.01,WeatherCatV1.01B143,2013-03-09 03:32:00,
2013-03-08 21:37:00,30.4,24.7,30.35,SSW,212,0.0,0.0,79,0.00,,,0.01,WeatherCatV1.01B143,2013-03-09 03:37:00,
2013-03-08 21:42:00,30.4,24.7,30.35,SSW,212,0.0,1.0,79,0.00,,,0.01,WeatherCatV1.01B143,2013-03-09 03:42:00,
2013-03-08 21:47:00,30.2,24.5,30.35,SSW,212,0.0,1.0,79,0.00,,,0.01,WeatherCatV1.01B143,2013-03-09 03:47:00,
2013-03-08 21:52:00,30.1,24.4,30.35,SSW,212,0.0,0.0,79,0.00,,,0.01,WeatherCatV1.01B143,2013-03-09 03:52:00,
2013-03-08 21:57:00,30.0,24.6,30.34,SSW,212,0.0,0.0,80,0.00,,,0.01,WeatherCatV1.01B143,2013-03-09 03:57:00,
2013-03-08 22:02:00,29.7,24.3,30.34,SSW,212,0.0,0.0,80,0.00,,,0.01,WeatherCatV1.01B143,2013-03-09 04:02:00,
2013-03-08 22:07:00,29.4,24.0,30.33,SSW,212,0.0,0.0,80,0.00,,,0.01,WeatherCatV1.01B143,2013-03-09 04:07:00,
2013-03-08 22:12:00,29.2,24.1,30.33,SW,214,0.0,0.0,81,0.00,,,0.01,WeatherCatV1.01B143,2013-03-09 04:12:00,
2013-03-08 22:17:00,29.0,23.9,30.33,SW,215,0.0,0.0,81,0.00,,,0.01,WeatherCatV1.01B143,2013-03-09 04:17:00,
2013-03-08 22:22:00,29.0,23.9,30.33,SW,215,0.0,0.0,81,0.00,,,0.01,WeatherCatV1.01B143,2013-03-09 04:22:00,
2013-03-08 22:27:00,29.0,24.2,30.32,SW,226,0.0,0.0,82,0.00,,,0.01,WeatherCatV1.01B143,2013-03-09 04:27:00,
2013-03-08 22:32:00,29.0,24.2,30.32,SW,226,0.0,0.0,82,0.00,,,0.01,WeatherCatV1.01B143,2013-03-09 04:32:00,
2013-03-08 22:37:00,29.0,24.2,30.32,SW,226,0.0,0.0,82,0.00,,,0.01,WeatherCatV1.01B143,2013-03-09 04:37:00,
2013-03-08 22:42:00,29.0,24.2,30.32,SW,226,0.0,1.0,82,0.00,,,0.01,WeatherCatV1.01B143,2013-03-09 04:42:00,
2013-03-08 22:47:00,29.1,24.3,30.32,SW,226,0.0,0.0,82,0.00,,,0.01,WeatherCatV1.01B143,2013-03-09 04:47:00,
2013-03-08 22:52:00,29.2,24.4,30.32,WSW,242,0.0,1.0,82,0.00,,,0.01,WeatherCatV1.01B143,2013-03-09 04:52:00,
2013-03-08 22:57:00,29.3,24.2,30.31,WSW,256,0.0,1.0,81,0.00,,,0.01,WeatherCatV1.01B143,2013-03-09 04:57:00,
2013-03-08 23:00:00,29.3,24.2,30.31,WSW,255,0.0,0.0,81,0.00,,,0.01,WeatherCatV1.01B143,2013-03-09 05:00:00,
2013-03-08 23:01:00,29.3,24.2,30.31,WSW,256,0.0,0.0,81,0.00,,,0.01,WeatherCatV1.01B143,2013-03-09 05:01:00,
2013-03-08 23:03:00,29.3,24.2,30.30,WSW,257,0.0,1.0,81,0.00,,,0.01,WeatherCatV1.01B143,2013-03-09 05:03:00,
2013-03-08 23:08:00,29.4,24.3,30.30,West,266,0.0,1.0,81,0.00,,,0.01,WeatherCatV1.01B143,2013-03-09 05:08:00,
2013-03-08 23:13:00,29.6,24.5,30.30,South,183,0.0,1.0,81,0.00,,,0.01,WeatherCatV1.01B143,2013-03-09 05:13:00,
2013-03-08 23:18:00,29.8,24.7,30.30,SSW,207,1.0,1.0,81,0.00,,,0.01,WeatherCatV1.01B143,2013-03-09 05:18:00,
2013-03-08 23:23:00,29.8,24.4,30.30,SSW,194,0.0,0.0,80,0.00,,,0.01,WeatherCatV1.01B143,2013-03-09 05:23:00,
2013-03-08 23:28:00,29.9,24.5,30.30,South,170,0.0,0.0,80,0.00,,,0.01,WeatherCatV1.01B143,2013-03-09 05:28:00,
2013-03-08 23:30:00,29.9,24.5,30.30,SW,219,0.0,1.0,80,0.00,,,0.01,WeatherCatV1.01B143,2013-03-09 05:30:00,
2013-03-08 23:35:00,30.1,24.7,30.29,SW,214,0.0,1.0,80,0.00,,,0.01,WeatherCatV1.01B143,2013-03-09 05:35:00,
2013-03-08 23:40:00,30.1,24.7,30.29,South,190,0.0,1.0,80,0.00,,,0.01,WeatherCatV1.01B143,2013-03-09 05:40:00,
2013-03-08 23:45:00,30.2,24.5,30.29,SSW,203,1.0,1.0,79,0.00,,,0.01,WeatherCatV1.01B143,2013-03-09 05:45:00,
2013-03-08 23:50:00,30.3,24.6,30.28,WSW,242,1.0,1.0,79,0.00,,,0.01,WeatherCatV1.01B143,2013-03-09 05:50:00,
2013-03-08 23:55:00,30.4,24.7,30.28,South,172,0.0,1.0,79,0.00,,,0.01,WeatherCatV1.01B143,2013-03-09 05:55:00,